Location: Wheeling
(40.0640°N, 80.7210°W)
Time: 07:34:32
(UTC-04:00)

ISS - Visible Passes

Search period start: 30 July 2021 00:00
Search period end: 09 August 2021 00:00
Orbit: 419 x 421 km, 51.6° (Epoch: 30 July)

Date Brightness Start Highest point End Pass type
(mag) Time Alt. Az. Time Alt. Az. Time Alt. Az.
30 Jul -1.9 21:02:24 10° NNW 21:05:09 23° NNE 21:07:55 10° ENE visible
30 Jul -3.5 22:38:52 10° WNW 22:42:09 58° SW 22:42:09 58° SW visible
31 Jul -3.8 21:51:31 10° NW 21:54:54 80° NE 21:56:36 27° ESE visible
01 Aug -3.1 21:04:16 10° NW 21:07:34 48° NNE 21:10:50 10° ESE visible
01 Aug -1.7 22:41:41 10° W 22:44:05 19° SW 22:44:05 19° SW visible
02 Aug -2.5 21:53:54 10° WNW 21:56:57 32° SW 21:58:39 20° S visible
03 Aug -3.3 21:06:24 10° WNW 21:09:43 57° SW 21:13:01 10° SE visible
04 Aug -0.9 21:57:59 10° WSW 21:58:45 11° SW 21:59:31 10° SW visible
05 Aug -1.4 21:09:13 10° W 21:11:38 18° SW 21:14:02 10° S visible
